STARLINK-1134, 45048

Orbit data source: Space-Track

STARLINK-1134, 45048 is a payload satellite owned by SpaceX/Seattle (US) in LEO that was launched on Wed, 29 Jan 2020 UTC via an FALCON 9 launch vehicle from the Air Force Eastern Test Range (AFETR). Payload-class satellites include a variety of spacecraft equipped with specific instruments for various scientific and technological missions. These include communications satellites like Starlink; space stations such as the ISS; scientific satellites like the Hubble; Earth observation satellites from companies like Planet Labs, Umbra, and HawkEye 360; GPS; miniature CubeSats for education and research; and military/defense satellites.

Loading next visibility...
Identifier
45048, 2020-006E
Orbit
LEO
Country
Flag of USUS
Related business
Manufacturer
SpaceX/Seattle
Mission
Partially operational Commercial Communications
Bus & Motor
STARLINK, Unknown motor
Mass
260 kg wet, ~248 kg dry
Launch date (UTC)
2020-01-29 (6 years ago)
Launch vehicle
FALCON 9
Launch site
Air Force Eastern Test Range (AFETR)
Object type
Payload
Rocket body
Debris
Shape & HBR
Box + 1 Pan, 10.1 m
Radar Cross Section
13.562 m², Large (>1 m²)

Expand to show TLE details & history
Last TLE update: 9 hours ago

TLE from 9 hours ago
0 STARLINK-1134
1 45048U 20006E   25292.11136106  .00072280  00000-0  27349-2 0  9994
2 45048  53.0389 182.3181 0011845 103.0646 257.1674 15.26249535315401
Epoch: 2025-10-19T02:40Z
TLE epoch observation values (Epoch: 2025-10-19T02:40:21.595Z)
Latitude
-0.00006°
Longitude
114.39536°
Altitude
489.736 km
Speed
7.62 km/s
True Right ascension
12h 09m 16s
True Declination
0° 00' 00"
Sunlit
Object was in daylight at epoch
Visualization orbit readout
Latitude
Unknown
Longitude
Unknown
Altitude
Unknown
Speed
Unknown
Apparent Right ascension
Unknown
Apparent Declination
Unknown
Sunlit
N/A
Visualization observer readout
Local Sidereal Time
06:20:19
Azimuth
Unknown
Elevation
Unknown
Doppler factor
Unknown
Orbital elements
Apogee altitude
495.444 km
Perigee altitude
479.179 km
Semi-major axis
6,865.448 km
Eccentricity
0.00118
Inclination
53.0389°
RAAN
182.3181°
Arg. of periapsis
103.0646°
True anomaly
257.0351°
Mean anomaly
257.1674°
Eccentric anomaly
257.10125°
Mean motion
3.8154 °/min
Orbital period
94.35 mins
BSTAR
0.0027349
Loading maneuver chart data...
Computing Atmospheric mass density...
Loading historical data...
Loading historical data...
Loading historical data...
Loading historical data...
Loading historical data...
Loading historical data...
Loading historical data...

Documentation

Showing up to 5 results
|